Wind_Speed
39 40 41 42 42 42 43 44 44 45 45 45 45 45 46 46 47 48 50 51 52 54 56 57 58 59 60 61 61 61 60 59 58 57 55 54 53 53 53 53 53 53 52 51 50 51 52 53 54 57 59 61 61 59 56 54 55 56 57 58 58 58 58
40 40 42 43 43 43 44 45 45 46 46 47 48 49 49 49 50 51 52 54 55 57 58 59 59 59 59 59 59 59 58 57 56 54 52 52 52 52 52 52 52 52 51 50 50 51 52 54 56 59 60 59 57 54 52 52 54 56 57 57 57 58 58
41 42 43 44 44 44 45 45 46 47 47 48 49 50 51 51 52 53 54 55 56 57 59 59 58 58 57 57 57 56 55 54 53 52 51 51 51 51 51 51 50 50 49 49 50 52 53 55 58 59 59 56 52 50 50 51 54 55 56 57 57 58 58
43 44 44 44 44 45 46 47 47 48 48 49 50 51 52 53 54 55 55 55 55 57 59 58 56 55 55 55 54 53 52 51 50 50 51 51 51 51 50 49 48 48 49 49 51 52 55 57 59 59 57 52 48 47 49 51 53 55 56 57 57 58 59
45 45 45 45 46 47 47 48 49 49 50 51 52 53 54 54 55 54 54 54 53 55 57 57 55 53 53 52 51 51 50 49 50 50 50 50 50 49 48 47 47 47 48 49 51 54 56 58 59 57 53 48 46 47 49 50 52 54 55 56 57 58 60
47 46 46 47 48 48 48 49 50 51 52 53 53 54 54 54 53 53 52 52 51 52 54 54 53 51 50 50 50 49 49 49 49 49 48 48 48 47 46 45 45 46 47 50 53 55 57 58 56 52 48 46 46 48 49 50 52 54 55 55 57 59 61
47 47 47 48 49 49 49 50 51 51 52 52 53 53 52 52 52 51 51 50 49 50 51 51 50 49 49 49 49 48 48 47 47 47 47 46 46 45 45 44 45 46 49 52 54 56 56 54 50 46 44 45 47 48 49 50 51 53 54 56 57 59 62
48 48 48 48 48 49 50 51 51 51 51 51 51 51 51 50 50 49 49 48 47 47 48 48 48 48 48 47 47 46 46 45 45 45 45 45 45 44 44 44 46 49 51 53 55 55 53 49 45 43 43 45 47 48 48 49 51 52 54 56 58 60 64
50 49 47 47 48 49 50 51 50 49 49 50 50 49 49 48 47 47 47 46 46 45 45 46 46 46 46 45 44 44 44 44 44 44 44 44 44 44 44 46 48 49 51 52 53 51 48 45 43 42 43 44 46 46 47 49 51 53 54 56 58 61 65
49 47 46 46 48 49 49 49 48 48 48 48 48 47 46 45 45 44 44 44 44 44 44 44 44 43 43 43 43 43 43 43 44 44 44 44 44 44 45 46 47 49 50 50 49 47 44 43 43 43 44 44 44 45 46 48 51 53 56 57 59 62 66
47 46 45 46 47 48 48 47 46 46 46 46 45 45 44 43 43 42 42 42 42 42 42 42 42 42 42 42 42 42 42 42 43 43 43 43 43 44 45 46 47 48 48 47 46 44 43 43 44 45 45 44 44 45 46 48 51 54 56 58 60 64 68
44 44 44 46 46 46 46 45 44 43 44 43 43 42 41 41 41 41 41 41 40 40 41 41 41 41 41 41 41 41 41 42 42 42 42 43 43 44 45 45 46 46 46 45 44 43 43 44 46 46 45 45 45 46 47 50 52 55 57 59 62 66 70
43 44 44 45 44 43 43 42 42 41 41 41 40 39 39 39 39 40 40 40 40 40 41 41 41 41 41 41 40 40 41 41 42 42 43 43 44 44 44 44 44 45 45 45 44 43 44 46 47 46 45 46 47 48 50 52 54 56 58 60 63 68 70
42 42 42 42 41 40 40 40 39 39 39 39 38 38 38 38 39 39 40 40 41 41 41 41 41 41 41 41 41 41 41 42 42 43 43 43 43 43 43 43 43 44 45 46 45 44 46 47 47 47 47 48 48 49 51 53 55 58 60 61 64 68 69
39 39 40 40 40 40 39 38 38 37 37 37 37 37 38 39 40 40 41 42 42 42 41 41 41 41 41 41 41 41 41 42 43 43 43 43 43 43 42 42 43 45 47 49 48 47 48 48 48 48 49 49 49 51 53 54 56 58 60 62 65 67 69
37 38 39 39 39 38 38 37 37 37 37 38 38 39 39 40 41 42 42 43 42 42 42 42 42 41 41 41 41 41 41 42 42 42 42 42 42 42 41 42 44 47 49 50 51 50 50 50 50 50 50 49 50 52 54 55 57 59 60 62 65 67 68
36 36 38 38 38 37 37 37 37 37 38 39 40 40 41 42 42 43 43 43 43 42 42 42 41 41 41 41 41 40 41 42 42 42 42 42 42 42 43 44 46 48 50 50 52 52 51 51 52 52 51 51 52 54 55 56 58 59 60 62 66 68 69
35 35 36 37 37 37 38 38 38 38 39 40 41 42 42 43 43 43 43 43 43 42 42 41 41 40 40 40 40 40 41 42 43 43 42 42 43 44 45 47 48 50 51 51 53 53 52 52 54 53 52 53 54 55 55 56 58 60 62 64 66 69 71
35 36 37 38 38 39 39 39 39 39 40 41 42 43 43 43 44 44 44 43 43 42 41 41 40 39 39 39 39 40 41 42 43 43 43 44 45 45 46 47 49 51 52 53 54 54 53 54 54 54 54 55 55 55 55 57 59 61 63 66 68 70 71
37 39 39 40 39 39 39 39 39 40 40 41 42 43 43 44 44 44 43 43 42 41 41 40 39 38 38 38 39 40 41 43 43 44 44 45 46 46 46 48 50 52 54 55 55 55 54 53 53 53 54 55 56 56 57 58 60 61 64 67 69 70 72
39 39 39 38 39 39 39 39 39 40 40 41 42 43 43 43 43 43 42 42 41 41 40 39 38 38 38 38 39 41 42 43 44 44 45 46 46 47 48 49 51 54 55 55 55 55 53 53 53 53 55 57 58 57 58 60 61 64 66 68 69 71 72
35 35 35 36 37 37 37 37 37 38 40 41 41 42 42 42 42 42 41 41 40 40 39 39 38 38 38 38 40 42 43 44 44 45 45 46 47 48 49 50 52 55 55 54 53 53 52 52 52 54 56 60 61 59 60 63 65 66 67 68 69 71 72
33 33 34 35 36 35 35 35 36 38 39 40 40 40 41 41 40 40 40 40 39 39 39 39 39 39 38 39 40 42 43 44 45 45 46 47 48 49 50 51 53 55 53 52 51 52 52 51 52 55 58 62 65 65 64 65 67 67 67 68 70 71 72
36 37 37 37 36 36 35 36 37 38 39 39 39 39 39 39 39 39 40 40 39 39 39 40 40 39 39 39 40 42 44 45 46 46 46 47 49 51 51 52 53 53 52 52 53 55 53 52 54 56 59 62 66 67 67 66 66 67 68 69 71 72 73
40 39 39 38 37 37 37 36 36 37 38 38 38 38 38 38 38 39 39 40 40 40 40 40 40 40 39 40 41 43 45 45 46 47 48 49 51 52 52 52 52 53 53 54 57 60 57 55 56 58 60 63 65 66 67 66 66 67 69 70 71 72 73
41 40 39 38 37 37 37 37 37 38 38 38 38 37 37 37 38 39 40 40 40 40 40 40 40 40 40 40 41 43 44 45 46 47 49 50 51 52 52 52 52 53 54 55 59 62 60 58 60 61 62 64 64 65 66 66 67 68 69 70 72 73 74
40 40 39 38 37 38 38 38 39 39 38 38 38 37 37 37 38 40 41 41 41 40 40 40 41 41 41 41 42 43 45 47 48 49 49 49 50 51 52 52 52 53 54 55 59 62 62 62 63 63 63 63 64 64 65 66 67 68 69 71 72 73 74
40 40 38 38 38 39 39 40 41 41 40 39 38 37 37 38 39 40 40 40 40 40 41 41 41 42 42 42 44 46 47 49 50 50 50 49 50 51 53 54 54 55 55 56 58 61 62 62 62 62 63 63 64 65 65 66 68 69 69 71 72 73 74
41 40 39 39 40 40 41 42 43 41 39 37 35 36 37 38 39 40 40 40 40 41 42 42 42 42 42 43 45 47 49 50 50 51 52 52 53 53 54 55 55 56 56 56 57 59 60 61 61 62 63 64 64 65 66 66 68 69 70 71 72 73 73
41 40 41 41 41 42 41 40 39 36 34 33 34 37 40 40 41 41 41 42 42 43 43 42 41 41 42 44 45 47 49 51 52 52 53 54 55 55 55 56 56 56 56 57 57 58 60 61 61 62 63 64 64 65 66 66 68 69 70 71 72 73 73
42 42 42 42 40 39 38 38 39 38 38 38 41 42 43 42 43 43 43 43 43 43 43 42 41 40 41 43 45 47 49 51 52 53 54 55 56 56 56 56 56 56 56 56 57 58 60 61 61 62 63 63 64 65 65 66 67 68 69 70 71 72 73
43 42 42 41 40 39 40 41 43 44 45 45 46 46 45 44 44 45 44 44 43 43 43 43 41 40 41 43 45 47 49 51 52 52 54 55 56 56 56 56 56 55 55 56 57 58 60 61 61 61 62 63 64 64 65 66 67 68 69 70 71 72 73
45 44 43 44 45 46 45 44 43 44 46 47 47 47 46 45 45 45 45 44 44 43 43 43 41 41 41 43 45 47 49 51 52 53 54 56 56 56 56 56 56 56 56 57 57 58 59 60 60 61 62 63 63 64 65 66 67 68 69 70 71 72 73
45 45 46 47 49 49 47 45 46 46 47 48 49 48 47 46 46 46 45 44 44 43 43 43 42 42 42 43 45 47 49 51 52 53 54 56 57 57 58 58 57 57 57 57 58 58 59 59 60 61 62 62 63 64 65 66 67 68 69 70 71 72 73
43 45 48 49 49 48 48 48 48 48 48 49 49 48 47 47 46 46 46 45 45 44 43 43 43 43 43 44 45 47 49 50 50 51 53 55 56 57 57 57 57 57 57 58 59 60 60 60 61 61 62 63 64 65 65 66 67 68 69 70 71 73 74
45 48 49 49 49 49 49 49 49 49 49 49 49 49 48 47 47 47 47 46 45 44 43 43 43 43 43 44 45 47 48 48 48 49 51 53 54 55 56 56 57 57 58 59 60 61 62 62 63 64 64 65 66 66 67 67 68 69 70 71 72 73 74
48 50 50 50 50 51 51 50 50 50 50 50 50 50 49 48 48 48 47 47 47 45 45 44 44 44 44 43 44 46 47 47 48 48 50 51 52 53 54 56 56 56 57 58 59 61 62 62 64 65 65 66 67 68 68 69 69 70 70 71 73 74 75
Wind_Direction
266 267 268 270 271 273 275 276 276 277 277 278 278 280 281 282 283 283 284 285 286 288 289 290 292 293 294 295 296 297 298 299 299 299 299 299 299 300 300 301 301 301 301 303 306 307 307 307 310 312 314 315 315 315 315 316 317 317 319 320 321 322 322
267 268 269 270 272 273 274 275 276 277 277 278 278 280 282 283 283 284 285 287 288 289 290 291 292 293 294 295 296 297 298 299 299 299 298 298 299 300 300 300 300 301 303 305 306 306 306 309 311 313 315 315 314 314 316 318 318 319 320 321 321 322 323
268 269 270 271 272 273 274 275 275 276 277 278 279 280 281 283 283 284 286 287 289 290 290 290 291 293 294 295 296 297 298 298 298 298 298 298 299 299 299 300 301 303 304 305 306 305 307 310 313 314 314 313 312 313 316 319 320 320 321 322 322 323 325
269 269 270 271 272 274 275 275 276 276 277 278 279 280 281 282 284 285 286 288 290 290 290 290 292 293 294 296 296 297 297 297 297 297 297 298 298 298 299 300 301 303 304 304 304 305 309 311 312 313 312 311 311 312 316 319 320 322 323 323 324 326 328
269 269 269 271 273 275 276 276 276 277 278 279 280 281 282 283 284 286 287 289 290 291 291 292 293 295 295 296 296 296 296 296 296 296 296 297 297 298 299 300 301 302 302 302 303 306 309 311 312 312 311 310 311 313 316 319 322 323 324 325 326 328 331
267 267 269 272 274 276 276 276 277 278 278 279 281 282 283 284 285 287 288 289 290 290 291 293 295 295 295 295 295 296 296 296 296 296 296 297 298 298 298 299 301 300 299 300 303 306 308 309 310 310 310 310 312 314 317 320 323 325 325 326 328 330 333
265 267 271 273 275 276 277 277 278 278 280 281 282 283 284 285 287 288 288 289 289 289 290 292 294 295 295 295 296 296 296 296 296 297 298 298 299 299 299 300 299 298 299 301 303 305 307 308 308 308 308 310 312 315 317 321 324 325 326 328 329 332 335
265 268 272 274 276 277 278 278 279 280 281 282 283 284 285 286 287 288 288 289 289 289 291 292 293 294 294 295 295 296 296 297 297 298 299 299 300 300 300 299 298 298 299 301 303 305 306 306 306 307 308 309 312 315 318 321 324 325 327 328 330 333 335
266 269 272 274 276 277 278 278 279 281 282 283 283 284 285 286 287 287 288 289 290 291 292 293 293 294 294 295 296 296 297 298 299 299 300 300 300 300 299 298 298 299 300 302 303 305 305 305 305 307 308 310 313 316 319 321 324 326 327 328 330 333 335
266 268 271 274 276 276 277 278 279 281 282 282 283 284 285 286 287 288 289 290 291 292 293 293 293 294 295 296 297 298 299 299 300 300 301 301 300 300 299 299 299 300 301 302 303 304 303 303 305 307 308 311 314 317 320 322 325 326 327 328 330 333 334
267 269 271 273 274 275 276 278 279 280 281 282 283 284 285 287 288 289 290 291 292 293 293 293 293 294 295 297 298 299 299 300 300 300 301 301 300 300 300 300 300 300 301 301 302 302 302 303 305 307 309 312 316 318 320 323 325 326 327 328 331 333 333
267 268 269 271 273 275 276 278 279 280 281 282 284 285 287 288 289 290 291 292 293 293 293 293 294 295 296 298 299 299 299 300 300 301 301 301 301 300 299 300 300 300 300 300 301 302 302 303 306 308 311 315 318 320 321 324 326 327 327 329 332 333 332
266 267 269 271 273 275 277 278 279 280 281 283 285 286 288 289 290 291 292 293 293 293 293 294 295 297 298 298 299 299 299 300 301 301 301 300 299 299 299 299 298 298 299 299 301 302 302 304 307 310 314 318 319 321 322 324 326 327 328 330 332 333 332
266 267 269 271 273 275 276 277 279 281 283 284 286 288 289 290 291 292 293 293 293 294 295 296 297 298 298 298 299 300 300 301 301 300 300 299 298 298 298 297 297 297 297 298 301 302 303 306 310 314 317 318 319 320 322 324 326 328 329 330 331 332 331
266 268 269 271 273 275 276 278 280 282 284 286 288 289 290 291 292 293 293 293 294 295 296 297 297 298 298 299 300 301 301 300 300 299 299 298 298 297 297 296 296 296 297 300 303 305 307 311 314 315 316 317 318 320 321 323 326 328 329 329 331 331 330
267 269 270 271 273 275 277 279 282 284 286 288 289 290 291 292 293 293 293 294 294 295 296 296 297 298 299 299 300 301 300 299 298 298 297 297 297 296 295 294 294 296 299 304 306 308 310 313 314 314 315 316 317 319 321 323 326 327 328 329 330 330 331
268 269 271 272 274 276 279 281 284 286 288 289 290 291 291 292 293 293 293 293 294 295 295 296 297 298 299 299 300 300 299 298 297 296 296 295 295 294 292 293 295 298 302 305 306 308 311 312 312 312 313 315 317 318 320 322 325 326 327 329 330 330 332
269 270 272 274 276 278 281 284 286 288 288 289 290 291 291 291 292 292 292 292 293 294 295 296 297 298 299 299 300 299 298 297 296 295 295 294 293 293 294 295 298 301 303 304 305 307 309 309 310 311 314 316 316 317 319 323 325 325 327 329 330 332 333
268 271 274 276 278 280 283 285 287 288 288 289 290 290 291 291 291 292 292 293 294 295 295 296 297 298 298 299 299 298 297 296 295 295 294 293 293 294 296 297 299 300 301 303 305 307 308 308 310 313 315 315 314 316 320 324 324 325 327 330 331 332 332
269 272 275 277 280 282 284 287 288 289 289 290 290 291 291 291 292 292 292 293 294 294 295 296 297 297 298 298 297 297 296 295 295 295 295 294 295 295 296 296 296 297 299 303 307 308 309 310 313 314 314 313 314 318 322 323 324 326 329 330 331 331 330
271 273 276 278 281 283 286 289 290 290 291 291 291 291 291 291 292 292 292 293 293 294 295 295 296 296 296 296 296 295 295 295 295 296 296 296 295 295 296 296 296 297 300 305 308 309 310 313 314 314 314 314 315 319 322 323 325 328 329 330 329 329 328
271 275 280 282 284 286 289 291 292 292 292 292 291 291 291 291 292 292 292 293 294 294 295 294 294 294 295 295 295 295 295 295 295 296 297 296 296 296 297 298 298 299 303 306 308 308 310 313 314 315 316 316 317 320 324 325 327 328 328 327 327 326 327
271 278 284 287 288 289 291 293 294 293 293 292 292 292 292 292 293 293 293 294 294 294 294 293 293 294 295 295 295 295 294 294 295 296 297 296 296 297 299 300 301 302 304 305 307 307 310 313 316 316 317 318 319 321 325 326 326 325 325 324 324 324 325
273 279 284 288 289 289 291 294 295 294 293 293 293 293 293 294 295 295 295 295 294 294 294 294 294 295 295 294 294 294 294 294 296 296 296 296 296 298 301 303 303 302 304 306 308 309 312 315 317 317 318 318 318 320 322 323 323 322 322 322 322 323 324
275 279 283 287 288 287 290 294 295 295 295 294 294 294 295 296 297 297 297 296 295 295 295 295 295 295 295 294 293 293 294 295 295 295 296 297 299 301 303 304 303 304 306 309 310 310 312 315 316 317 318 317 317 318 319 320 319 319 319 320 320 321 322
275 279 283 285 284 285 290 294 296 297 297 295 295 295 296 298 298 298 297 296 296 297 297 297 296 295 294 293 293 293 293 292 293 295 298 299 301 302 303 304 303 304 306 308 307 308 311 314 315 316 316 315 315 315 316 316 316 317 317 318 319 320 321
275 279 282 281 282 285 291 295 298 299 298 296 296 296 298 300 300 298 297 296 296 297 297 296 294 294 293 293 292 291 291 291 292 296 299 299 299 300 301 301 300 301 304 306 305 306 309 312 312 313 313 312 312 312 313 314 314 315 316 316 317 318 319
277 279 279 278 281 287 292 296 298 299 297 296 296 297 299 301 300 299 297 297 297 298 297 295 293 293 293 292 291 291 291 293 295 297 298 298 298 299 299 299 300 302 304 305 304 305 307 308 308 309 309 309 310 311 311 312 313 313 314 315 316 317 318
277 278 277 278 282 288 292 295 298 298 296 295 295 298 301 301 300 299 298 297 299 299 296 294 294 294 293 292 292 293 294 295 296 297 298 298 298 298 297 298 300 301 302 302 303 303 303 304 305 305 306 307 308 309 310 311 312 312 313 314 315 316 317
275 277 278 280 285 289 292 296 300 299 296 295 296 299 302 302 300 300 299 298 299 298 295 294 294 294 294 294 294 294 294 295 295 296 297 297 297 296 297 297 297 298 299 300 300 300 301 301 302 303 305 307 307 308 309 310 311 311 312 314 314 315 315
274 277 279 281 284 287 291 295 298 296 292 292 295 298 301 301 300 300 300 299 298 297 295 294 294 293 294 294 294 294 293 294 295 296 296 295 295 295 296 296 297 297 298 298 298 299 300 301 302 304 305 306 307 307 308 309 310 311 312 313 313 314 314
273 277 278 280 282 285 288 291 291 289 287 287 291 295 298 299 299 300 299 299 299 298 297 296 295 294 293 293 293 293 293 294 294 294 294 294 294 295 295 296 296 297 297 298 298 299 300 301 303 304 305 305 306 307 308 309 310 311 312 312 313 313 314
274 276 277 279 283 286 288 289 289 287 285 286 289 293 295 296 297 298 298 299 299 298 298 297 296 295 294 293 293 293 292 292 293 293 293 293 293 294 294 294 295 295 296 297 297 298 299 301 302 303 304 305 305 306 307 308 309 310 311 312 312 313 314
276 276 275 277 281 284 287 289 288 287 286 286 288 290 292 293 295 296 298 299 299 299 299 298 297 295 294 294 293 293 292 293 293 294 294 293 293 293 294 294 295 296 296 297 297 298 299 301 302 303 303 304 305 306 307 308 309 309 310 311 312 313 314
274 272 274 277 280 283 287 288 288 287 287 287 287 288 290 292 293 295 297 299 300 300 299 298 297 296 296 296 295 295 294 295 295 295 294 294 294 295 296 296 297 297 297 298 298 299 300 301 301 302 302 303 304 305 306 306 307 308 309 311 312 313 313
271 271 274 278 280 283 287 288 286 286 286 286 286 287 288 291 293 295 297 299 300 299 298 297 297 297 297 297 297 296 296 297 297 297 296 297 298 299 300 299 298 298 299 299 300 300 300 300 301 301 301 302 303 303 304 305 306 307 309 310 311 312 313
271 272 275 278 281 283 286 286 285 285 284 284 285 286 288 290 293 294 296 298 299 298 297 297 297 298 299 299 299 298 298 299 300 300 300 302 303 303 303 302 301 301 302 302 302 302 302 302 301 301 301 301 301 302 303 304 305 306 308 309 310 311 312
Height
10756 10756 10754 10754 10754 10755 10755 10754 10753 10752 10752 10752 10751 10750 10749 10749 10748 10746 10744 10743 10742 10740 10738 10736 10734 10732 10730 10727 10725 10723 10721 10719 10717 10714 10711 10707 10704 10701 10698 10696 10694 10691 10688 10686 10683 10680 10678 10675 10672 10668 10663 10659 10654 10651 10647 10643 10639 10636 10632 10627 10623 10618 10614
10752 10752 10751 10750 10750 10751 10750 10749 10748 10747 10747 10747 10746 10745 10744 10743 10742 10741 10739 10738 10737 10734 10731 10729 10728 10726 10724 10722 10720 10717 10715 10713 10711 10709 10706 10703 10699 10697 10693 10691 10688 10685 10683 10680 10678 10675 10672 10670 10666 10663 10659 10654 10650 10646 10643 10639 10634 10631 10628 10623 10619 10615 10610
10747 10747 10746 10746 10746 10746 10746 10745 10744 10743 10742 10741 10740 10740 10739 10737 10736 10735 10734 10733 10731 10728 10725 10723 10722 10721 10718 10716 10715 10713 10710 10707 10705 10703 10700 10698 10695 10692 10689 10686 10683 10680 10677 10675 10673 10670 10667 10665 10661 10658 10654 10650 10646 10643 10640 10636 10631 10627 10623 10619 10615 10610 10606
10743 10743 10742 10742 10742 10742 10741 10740 10739 10738 10738 10736 10736 10735 10734 10732 10731 10730 10729 10728 10726 10722 10718 10717 10717 10715 10713 10711 10709 10708 10706 10703 10700 10698 10696 10693 10691 10688 10685 10682 10679 10676 10673 10670 10668 10666 10663 10660 10657 10653 10650 10646 10643 10640 10636 10632 10627 10622 10619 10614 10609 10605 10600
10739 10738 10738 10738 10737 10737 10737 10736 10735 10734 10733 10732 10731 10730 10729 10727 10726 10725 10724 10722 10721 10716 10712 10711 10711 10710 10708 10706 10704 10703 10701 10699 10696 10694 10691 10689 10687 10684 10681 10678 10676 10673 10670 10667 10665 10662 10659 10656 10652 10648 10645 10642 10639 10636 10632 10628 10622 10617 10614 10610 10605 10600 10594
10734 10734 10734 10733 10733 10733 10732 10731 10730 10729 10728 10727 10726 10724 10723 10722 10721 10720 10719 10717 10716 10712 10707 10706 10706 10705 10703 10701 10699 10698 10696 10694 10692 10689 10687 10685 10682 10680 10677 10675 10673 10670 10667 10664 10662 10659 10656 10653 10649 10645 10640 10637 10634 10631 10627 10623 10618 10613 10609 10605 10601 10595 10590
10730 10729 10729 10729 10728 10728 10727 10726 10725 10724 10723 10722 10720 10719 10718 10717 10716 10715 10713 10712 10711 10708 10705 10703 10702 10700 10699 10697 10695 10693 10691 10689 10687 10684 10682 10680 10678 10675 10673 10671 10669 10667 10664 10661 10658 10656 10653 10650 10646 10642 10638 10633 10630 10626 10622 10618 10614 10610 10605 10601 10597 10591 10586
10725 10725 10725 10725 10724 10723 10722 10721 10720 10719 10718 10717 10715 10714 10714 10712 10711 10709 10708 10707 10706 10704 10702 10700 10698 10696 10694 10693 10691 10689 10687 10684 10682 10679 10677 10675 10673 10671 10669 10667 10665 10663 10660 10657 10654 10651 10649 10646 10643 10640 10636 10631 10627 10623 10618 10614 10610 10606 10602 10597 10592 10588 10583
10720 10721 10721 10721 10719 10718 10717 10716 10715 10715 10714 10712 10710 10710 10709 10708 10706 10705 10703 10702 10700 10699 10698 10696 10694 10692 10690 10689 10687 10684 10682 10680 10677 10675 10673 10671 10669 10667 10665 10663 10661 10658 10655 10653 10649 10647 10644 10642 10639 10636 10633 10629 10624 10619 10615 10610 10606 10602 10598 10594 10589 10584 10579
10716 10717 10717 10716 10714 10713 10712 10711 10711 10710 10709 10707 10706 10705 10704 10703 10702 10700 10698 10697 10696 10694 10693 10691 10689 10688 10686 10684 10682 10680 10677 10675 10673 10670 10668 10667 10665 10663 10660 10658 10656 10653 10651 10648 10645 10642 10640 10637 10634 10632 10629 10626 10621 10616 10612 10607 10602 10598 10594 10590 10585 10580 10575
10711 10712 10712 10711 10709 10708 10707 10707 10707 10706 10704 10702 10702 10701 10700 10699 10697 10696 10694 10692 10691 10690 10689 10687 10685 10683 10681 10680 10678 10675 10673 10671 10668 10666 10664 10662 10660 10658 10655 10653 10651 10648 10646 10643 10641 10638 10635 10632 10630 10627 10624 10621 10617 10613 10609 10604 10599 10595 10590 10585 10580 10575 10569
10706 10706 10706 10705 10705 10704 10703 10702 10702 10701 10699 10698 10698 10697 10696 10695 10693 10691 10689 10688 10687 10686 10684 10682 10680 10679 10677 10675 10673 10671 10669 10666 10664 10661 10659 10657 10655 10652 10650 10648 10646 10644 10641 10639 10637 10634 10631 10628 10625 10622 10619 10615 10611 10608 10604 10600 10595 10591 10586 10581 10575 10569 10564
10700 10701 10701 10700 10700 10699 10698 10698 10697 10696 10695 10695 10694 10693 10691 10690 10688 10686 10685 10684 10683 10681 10680 10678 10676 10674 10672 10670 10668 10666 10664 10661 10659 10656 10654 10652 10650 10647 10645 10643 10641 10639 10636 10634 10632 10630 10628 10624 10621 10618 10614 10610 10606 10603 10599 10595 10590 10586 10581 10576 10570 10565 10558
10695 10696 10696 10695 10695 10695 10694 10693 10693 10692 10691 10691 10690 10689 10687 10685 10683 10682 10681 10679 10678 10676 10675 10673 10671 10669 10667 10665 10663 10661 10659 10657 10654 10651 10649 10647 10645 10643 10640 10638 10636 10634 10632 10629 10628 10626 10624 10620 10617 10613 10610 10606 10602 10598 10594 10590 10586 10581 10576 10571 10566 10560 10554
10691 10691 10691 10690 10690 10690 10690 10689 10689 10688 10687 10686 10685 10684 10682 10680 10679 10677 10676 10674 10673 10672 10670 10668 10666 10664 10662 10660 10658 10656 10654 10652 10649 10647 10645 10643 10640 10638 10636 10633 10631 10629 10627 10625 10623 10621 10619 10616 10612 10609 10605 10602 10598 10594 10590 10585 10581 10576 10571 10566 10561 10556 10550
10686 10686 10686 10685 10685 10685 10685 10685 10685 10684 10683 10682 10680 10679 10677 10676 10674 10673 10671 10670 10668 10667 10665 10663 10661 10660 10658 10656 10654 10652 10650 10647 10645 10643 10641 10638 10636 10634 10631 10629 10626 10624 10623 10621 10618 10616 10614 10611 10608 10605 10601 10598 10594 10589 10585 10581 10576 10572 10567 10562 10557 10551 10546
10681 10681 10681 10681 10681 10681 10681 10681 10681 10680 10679 10677 10675 10674 10673 10671 10670 10668 10666 10665 10664 10662 10661 10659 10657 10655 10653 10651 10649 10648 10646 10643 10641 10639 10637 10634 10631 10629 10627 10624 10622 10620 10619 10617 10614 10611 10609 10607 10603 10600 10597 10593 10589 10585 10580 10576 10571 10567 10563 10558 10552 10546 10540
10677 10676 10676 10676 10676 10676 10676 10677 10677 10676 10674 10672 10671 10669 10668 10667 10665 10664 10662 10660 10659 10658 10656 10654 10653 10651 10648 10646 10645 10643 10641 10639 10637 10635 10632 10629 10627 10625 10622 10620 10618 10616 10614 10613 10610 10607 10605 10603 10599 10595 10592 10588 10584 10580 10576 10571 10566 10562 10557 10552 10546 10540 10533
10672 10672 10672 10672 10672 10672 10672 10673 10672 10671 10669 10668 10666 10664 10663 10662 10660 10659 10657 10655 10654 10653 10651 10650 10648 10646 10644 10642 10641 10639 10637 10634 10632 10630 10628 10625 10622 10621 10619 10616 10614 10611 10609 10608 10605 10603 10601 10598 10594 10590 10587 10583 10579 10575 10571 10566 10561 10556 10551 10545 10539 10534 10528
10668 10668 10668 10668 10668 10668 10668 10668 10667 10666 10664 10663 10661 10659 10658 10657 10655 10654 10652 10651 10649 10648 10646 10645 10644 10642 10640 10638 10636 10634 10632 10630 10628 10626 10623 10621 10618 10617 10615 10612 10610 10607 10604 10603 10601 10598 10595 10592 10589 10585 10581 10577 10573 10569 10565 10561 10556 10551 10545 10539 10533 10529 10524
10664 10664 10664 10664 10664 10664 10664 10663 10662 10661 10659 10658 10656 10655 10653 10652 10650 10649 10647 10646 10645 10643 10642 10640 10639 10637 10635 10633 10631 10629 10628 10625 10623 10621 10619 10617 10614 10613 10611 10608 10605 10602 10600 10598 10596 10592 10589 10586 10583 10579 10575 10571 10567 10564 10560 10555 10550 10544 10539 10533 10529 10525 10520
10660 10660 10660 10660 10661 10661 10660 10658 10657 10656 10654 10653 10651 10650 10648 10647 10645 10644 10642 10641 10640 10639 10637 10635 10634 10632 10631 10629 10627 10625 10623 10621 10619 10617 10615 10612 10610 10608 10606 10603 10600 10597 10596 10594 10590 10587 10584 10581 10578 10573 10569 10565 10561 10557 10553 10548 10543 10538 10533 10529 10525 10521 10516
10656 10656 10656 10656 10657 10656 10655 10654 10653 10651 10649 10648 10646 10645 10643 10642 10640 10639 10637 10636 10635 10634 10632 10630 10629 10628 10627 10625 10623 10620 10618 10615 10614 10612 10610 10607 10605 10603 10602 10599 10595 10592 10590 10588 10585 10582 10579 10576 10572 10567 10563 10558 10554 10550 10546 10542 10537 10532 10529 10525 10521 10517 10513
10652 10651 10651 10652 10652 10651 10650 10649 10648 10646 10644 10643 10642 10641 10639 10637 10636 10634 10633 10631 10630 10629 10628 10626 10625 10624 10622 10621 10618 10615 10613 10611 10609 10607 10605 10602 10600 10598 10597 10595 10591 10587 10585 10582 10578 10575 10573 10570 10566 10562 10558 10553 10549 10544 10540 10537 10532 10528 10524 10521 10517 10513 10508
10647 10647 10647 10647 10647 10646 10645 10645 10643 10642 10640 10639 10638 10636 10634 10633 10631 10630 10628 10626 10625 10624 10623 10622 10621 10619 10618 10616 10613 10611 10608 10606 10604 10602 10600 10598 10595 10593 10591 10589 10585 10581 10579 10576 10571 10567 10566 10564 10560 10556 10553 10548 10544 10540 10536 10532 10528 10524 10520 10516 10512 10508 10503
10643 10643 10643 10642 10641 10640 10640 10640 10639 10637 10636 10634 10633 10632 10630 10629 10627 10625 10623 10621 10620 10620 10619 10618 10616 10614 10613 10611 10609 10607 10604 10602 10600 10598 10596 10593 10590 10587 10585 10583 10580 10576 10574 10571 10566 10562 10560 10558 10554 10551 10548 10544 10540 10536 10532 10528 10524 10520 10516 10512 10508 10503 10499
10639 10639 10638 10637 10636 10635 10635 10635 10634 10633 10632 10630 10628 10627 10626 10624 10623 10621 10619 10617 10616 10615 10615 10613 10611 10609 10608 10607 10605 10602 10600 10597 10596 10594 10593 10590 10586 10583 10580 10578 10575 10573 10571 10567 10562 10557 10555 10552 10549 10546 10543 10540 10536 10533 10529 10524 10519 10516 10512 10508 10503 10499 10495
10634 10634 10633 10632 10630 10630 10630 10629 10628 10628 10627 10625 10624 10623 10622 10620 10618 10616 10615 10613 10612 10611 10610 10609 10607 10605 10604 10602 10600 10597 10595 10593 10591 10590 10588 10585 10582 10579 10575 10573 10570 10568 10566 10562 10558 10554 10550 10548 10545 10542 10539 10536 10532 10528 10524 10519 10514 10511 10507 10503 10498 10494 10490
10629 10628 10628 10627 10626 10625 10624 10624 10623 10623 10622 10621 10620 10618 10617 10616 10614 10612 10610 10609 10608 10607 10605 10604 10602 10601 10598 10597 10594 10592 10589 10588 10586 10584 10581 10579 10577 10574 10571 10569 10566 10564 10561 10558 10555 10551 10547 10544 10542 10538 10535 10532 10527 10523 10519 10515 10510 10505 10501 10497 10493 10488 10485
10623 10623 10623 10622 10621 10620 10619 10619 10618 10618 10617 10616 10615 10614 10613 10611 10609 10607 10606 10605 10604 10602 10600 10599 10598 10596 10594 10592 10590 10587 10585 10582 10580 10578 10576 10573 10570 10568 10566 10565 10562 10560 10557 10554 10551 10547 10543 10539 10537 10533 10530 10526 10522 10517 10514 10510 10505 10500 10496 10492 10487 10483 10479
10618 10618 10618 10617 10616 10615 10614 10614 10614 10613 10612 10612 10610 10609 10608 10606 10604 10602 10601 10600 10599 10597 10595 10594 10593 10592 10590 10588 10585 10583 10580 10578 10575 10573 10570 10566 10564 10562 10560 10559 10557 10555 10553 10549 10546 10542 10537 10533 10530 10527 10524 10520 10516 10511 10508 10504 10500 10496 10491 10486 10482 10477 10473
10613 10613 10613 10612 10611 10611 10611 10610 10609 10608 10607 10606 10606 10604 10603 10601 10599 10597 10596 10595 10593 10591 10589 10588 10588 10587 10586 10583 10581 10578 10575 10572 10570 10568 10564 10560 10557 10555 10553 10552 10550 10548 10546 10543 10539 10535 10531 10527 10524 10521 10517 10513 10509 10505 10501 10497 10493 10489 10485 10480 10476 10471 10467
10609 10609 10608 10607 10606 10606 10606 10605 10604 10603 10602 10601 10601 10599 10598 10597 10594 10592 10591 10589 10588 10586 10584 10583 10582 10582 10581 10578 10576 10573 10570 10567 10564 10562 10558 10554 10551 10548 10546 10545 10543 10542 10539 10536 10532 10529 10525 10521 10518 10514 10510 10506 10502 10499 10495 10491 10486 10482 10478 10474 10469 10465 10460
10605 10604 10602 10602 10602 10601 10600 10600 10598 10597 10596 10596 10595 10594 10593 10591 10589 10587 10586 10584 10583 10581 10579 10577 10576 10575 10574 10573 10571 10568 10565 10561 10559 10557 10553 10548 10545 10542 10540 10538 10537 10535 10532 10528 10524 10522 10519 10515 10512 10508 10504 10500 10496 10492 10488 10484 10479 10475 10471 10467 10463 10458 10454
10601 10599 10597 10597 10597 10596 10595 10594 10592 10591 10591 10590 10589 10588 10587 10586 10585 10583 10581 10579 10578 10576 10574 10572 10571 10569 10568 10567 10565 10562 10559 10556 10554 10551 10547 10542 10539 10536 10534 10532 10530 10527 10525 10521 10517 10515 10512 10509 10505 10501 10497 10493 10489 10485 10481 10477 10473 10468 10464 10461 10456 10451 10447
10594 10593 10591 10591 10591 10590 10589 10588 10586 10585 10584 10584 10583 10582 10581 10581 10580 10578 10576 10574 10572 10570 10568 10566 10565 10564 10563 10561 10559 10556 10553 10551 10549 10545 10541 10538 10534 10531 10528 10525 10523 10520 10518 10515 10511 10507 10505 10502 10498 10494 10490 10486 10482 10477 10474 10470 10465 10461 10458 10454 10449 10444 10440
10588 10587 10586 10585 10585 10584 10583 10582 10580 10579 10578 10577 10577 10576 10576 10575 10574 10573 10571 10569 10567 10565 10563 10561 10560 10558 10557 10556 10554 10551 10548 10545 10543 10540 10536 10533 10530 10526 10521 10518 10515 10514 10512 10508 10505 10501 10497 10494 10490 10486 10483 10478 10474 10470 10466 10462 10458 10454 10451 10447 10442 10438 10433